RH
18 18 17 17 16 16 15 15 15 15 15 16 16 17 18 18 19 20 20 20 21 21 21 22 23 23 24 24 24 25 26 27 26 25 23 21 19 17 15 14 13 12 11 10 9 8 8 8 8 8 8 8 8 8 8 9 10 10 11 12 12 13 13 14 14 14 15 15 15 14 15 15 15 15 15 15 15 15 15 15 15 15 16 17 19 22 26 28
19 18 18 17 17 16 16 15 15 15 15 15 16 16 17 19 20 22 22 23 23 23 23 23 24 24 25 25 25 26 28 29 29 27 26 24 22 19 17 16 14 13 13 12 11 10 9 9 8 8 8 8 8 8 8 8 9 9 10 11 11 11 11 11 11 11 11 11 11 11 10 10 11 10 11 12 12 13 13 14 14 14 16 20 23 26 27 26
19 19 18 17 17 17 16 16 15 15 15 15 15 16 17 17 19 21 23 24 25 26 26 26 26 26 26 26 27 27 28 30 31 30 28 26 25 22 20 18 16 15 14 13 12 11 11 10 9 9 9 9 8 8 8 8 8 8 9 10 10 9 10 10 10 10 10 10 9 9 9 9 9 10 11 12 13 14 14 15 15 15 17 20 23 23 23 21
20 19 19 18 18 18 18 17 17 16 16 15 15 15 16 17 17 19 21 23 26 27 28 28 28 28 28 28 28 28 28 30 32 32 30 29 27 25 23 21 19 17 16 14 13 13 12 12 11 10 10 10 9 8 8 8 8 8 9 9 9 9 10 10 10 10 10 10 10 9 10 10 11 13 15 16 17 16 15 15 15 14 15 18 19 19 18 19
20 20 19 19 19 19 18 18 17 16 16 16 16 16 16 16 17 17 19 21 23 26 28 30 30 31 31 31 30 30 30 31 32 32 32 31 29 27 25 23 21 19 18 17 15 14 13 13 12 12 12 11 10 10 9 8 8 8 9 9 8 9 10 10 10 10 10 11 11 12 13 14 16 17 17 17 16 15 14 13 13 13 14 16 18 19 20 21
21 21 20 20 19 19 19 18 17 16 16 16 16 16 16 16 16 17 18 18 20 22 25 28 30 31 32 33 32 31 31 31 31 32 32 32 31 29 26 25 23 22 20 19 17 16 15 14 13 13 12 12 12 11 10 9 9 9 10 9 9 9 10 10 11 12 14 15 16 16 15 15 16 16 15 14 14 14 14 14 14 14 16 20 22 24 24 23
22 21 21 20 19 19 18 18 17 16 15 15 15 16 16 17 17 17 17 17 18 19 21 24 27 29 32 33 33 33 32 32 31 32 32 32 31 29 28 26 25 23 22 21 19 18 17 16 15 14 13 12 12 12 12 11 10 11 11 11 11 11 12 13 14 16 16 16 16 15 14 14 14 13 13 13 14 17 18 18 17 19 24 27 28 28 26 23
22 21 21 20 19 19 18 17 16 16 15 15 16 15 16 16 17 17 17 17 17 18 19 20 22 25 27 30 31 32 33 33 32 31 31 31 30 29 28 27 26 25 23 22 21 20 18 17 16 15 14 13 13 13 13 13 13 14 15 13 12 13 15 14 14 14 13 13 13 14 14 14 13 12 13 15 17 20 21 19 20 26 31 32 31 30 26 22
22 21 20 20 19 19 18 18 16 16 16 16 16 16 16 16 16 17 17 18 18 18 18 18 19 21 23 25 27 29 30 31 31 31 31 30 29 29 28 27 26 25 24 23 22 21 19 18 17 16 15 15 15 15 15 15 16 18 17 15 15 16 16 14 12 12 13 14 14 15 16 15 14 15 16 17 19 21 22 24 28 35 37 36 35 30 25 24
22 21 20 20 19 19 18 18 17 17 16 17 17 16 16 16 16 17 17 18 18 18 18 18 19 19 20 21 22 24 26 27 28 29 29 29 28 27 27 26 26 25 24 23 22 21 20 19 18 18 17 17 17 17 16 17 18 18 17 17 18 18 18 15 14 13 14 13 13 14 15 14 15 17 18 19 21 24 27 31 37 41 39 36 31 24 22 23
23 21 20 20 20 20 19 18 17 17 17 17 17 17 17 17 17 17 17 17 18 18 19 19 19 19 19 19 20 21 22 23 25 26 26 26 27 26 26 25 25 24 23 23 22 22 21 20 20 19 19 18 18 18 17 18 19 19 19 20 21 22 22 20 17 16 14 14 13 14 15 16 18 19 20 22 24 26 28 32 37 37 33 28 23 21 22 22
23 22 21 21 20 20 19 18 18 17 17 17 17 17 17 17 17 17 18 18 18 18 19 19 19 19 19 19 20 20 20 21 22 23 23 24 24 24 24 24 24 23 23 22 22 22 22 22 21 20 20 20 20 19 18 19 20 22 23 24 26 27 27 25 22 19 18 18 18 19 21 24 26 24 24 26 26 27 30 31 33 32 29 26 24 25 24 24
24 23 22 21 21 20 19 19 18 18 17 17 17 17 17 17 17 18 18 18 18 18 19 19 19 19 19 19 20 20 20 21 21 21 21 22 22 23 23 23 23 23 23 23 23 22 22 22 22 22 22 22 22 21 21 22 23 26 28 29 31 32 32 31 26 23 23 24 25 26 28 31 31 28 28 28 28 32 34 33 32 32 31 29 28 28 26 26
24 23 23 22 22 21 20 19 19 18 17 17 17 16 17 17 17 18 18 18 19 19 19 19 19 19 20 20 20 20 20 20 21 21 21 21 21 22 22 22 22 23 23 23 24 23 24 24 25 25 25 24 23 22 22 23 26 28 30 33 34 35 36 32 29 28 29 28 28 28 31 36 36 31 29 29 31 36 36 35 35 35 32 30 28 27 26 26
26 24 24 23 23 21 20 20 19 18 17 17 17 16 17 17 17 17 18 19 19 19 19 19 19 19 20 20 20 20 21 22 21 21 21 21 21 22 22 22 22 22 23 23 24 24 25 26 25 25 25 24 23 23 24 25 27 28 31 33 33 34 34 32 31 32 30 27 26 29 35 41 38 31 29 30 34 37 37 37 37 34 31 29 27 26 27 26
26 25 25 24 23 22 21 20 19 19 18 17 17 17 17 17 17 18 18 18 19 19 19 19 19 19 20 20 21 21 22 23 23 22 22 22 21 21 22 22 22 22 23 23 24 25 25 25 25 25 24 24 24 24 25 27 29 29 29 30 30 32 32 31 32 31 28 25 26 30 34 39 37 32 31 32 34 35 35 34 33 31 28 27 26 27 28 29
27 26 25 25 24 23 21 20 20 19 18 18 17 17 17 17 17 18 18 18 19 19 19 19 18 19 19 20 21 22 24 25 25 24 23 23 22 22 22 22 23 23 23 23 24 24 24 25 24 24 24 23 23 24 25 26 27 27 26 26 28 31 31 29 29 28 27 27 28 29 31 33 33 31 30 30 31 31 30 29 29 28 28 28 30 31 34 38
29 27 26 26 25 24 22 21 20 20 19 18 17 17 17 17 18 18 19 19 19 19 19 18 18 18 19 20 21 22 24 25 26 25 24 24 24 24 24 24 24 24 24 24 24 25 25 25 25 25 24 24 23 23 23 23 23 23 23 25 27 28 28 27 27 26 27 27 26 26 26 27 27 27 26 26 27 26 25 26 27 30 32 34 37 41 46 49
31 29 28 27 26 25 24 22 21 20 19 19 18 18 18 18 18 18 18 19 19 19 19 18 18 19 19 20 21 21 23 24 25 26 26 26 26 26 26 26 26 26 26 26 26 27 26 26 26 25 25 24 24 23 23 22 22 23 24 25 25 25 25 25 25 25 25 25 24 23 23 23 24 24 24 24 25 25 27 30 34 39 42 44 48 53 57 57
33 31 29 29 27 27 26 23 22 21 20 20 18 19 20 19 18 18 18 18 19 19 18 18 18 18 19 20 21 21 22 23 25 26 26 27 27 28 28 27 28 27 27 27 27 27 27 27 26 25 25 24 24 24 24 24 25 26 26 25 25 24 24 23 23 23 23 23 22 22 22 22 24 26 29 30 32 36 39 42 48 51 52 54 57 60 61 60
36 33 31 31 30 29 28 25 23 22 21 20 20 21 21 20 18 18 18 18 18 19 18 18 18 19 19 20 21 21 22 22 23 25 26 27 27 28 28 28 28 28 27 27 27 27 27 27 26 26 27 27 28 28 28 29 30 31 31 30 28 26 26 26 26 26 25 25 25 25 26 29 33 38 42 45 48 51 53 54 56 57 58 60 62 63 62 60
41 36 33 33 32 31 30 28 24 23 22 21 21 22 21 20 19 18 18 18 18 19 19 19 19 19 20 20 21 21 21 21 22 24 25 27 28 28 28 27 28 28 28 28 28 28 28 30 31 33 36 37 38 36 37 40 42 44 43 41 39 36 37 37 35 34 33 34 33 34 38 42 47 52 57 61 62 62 62 60 59 60 62 63 64 64 63 63
45 41 37 35 34 33 33 31 27 25 23 22 21 22 21 20 20 20 20 20 20 20 20 20 20 20 21 22 22 22 22 22 22 24 25 26 28 29 28 27 28 30 31 31 32 34 36 39 44 49 52 53 52 52 56 60 61 60 56 54 51 49 50 50 48 45 44 45 46 49 56 60 63 67 69 70 69 67 65 62 62 64 64 65 64 65 69 73
50 45 40 38 36 36 35 34 32 27 25 23 21 21 22 21 22 22 22 21 21 21 21 21 21 22 23 23 23 23 23 23 24 24 24 26 28 30 29 28 31 34 35 36 39 43 48 54 62 67 69 69 70 73 79 80 78 74 70 66 62 60 63 63 60 57 57 60 63 69 75 77 76 76 75 73 71 68 65 64 65 67 67 66 64 68 77 82
54 50 45 41 39 38 37 36 35 32 28 25 22 21 21 23 24 23 24 24 24 24 23 21 22 23 23 26 27 26 24 25 26 25 24 26 28 29 29 31 35 39 40 43 46 51 60 70 79 85 86 88 91 94 97 97 96 93 88 82 78 78 82 82 79 78 80 82 82 84 85 82 79 77 75 73 71 69 68 68 68 68 67 65 66 73 82 86
58 56 49 45 43 41 39 37 36 36 33 28 24 22 22 23 25 25 26 29 30 29 27 23 22 23 25 30 30 26 25 25 25 26 25 25 27 29 31 34 37 39 41 44 47 56 67 79 88 94 96 98 101 102 102 103 102 100 96 90 89 93 98 100 97 96 96 93 88 85 81 78 76 76 76 74 72 71 71 70 68 66 65 65 69 76 83 86
60 61 56 50 46 44 42 40 38 37 36 33 28 25 23 23 25 26 29 35 35 32 31 27 25 26 28 32 31 27 27 26 24 26 26 25 25 27 30 33 35 37 38 40 44 54 66 77 87 94 97 100 101 101 102 103 105 103 98 93 92 97 102 102 99 97 93 87 84 83 80 76 74 77 78 76 74 74 72 70 67 65 65 67 70 76 84 88
61 65 62 54 50 48 45 42 41 39 37 36 33 29 26 25 25 25 30 38 38 37 37 32 28 28 30 33 34 31 28 25 25 26 25 25 25 25 28 32 34 35 36 38 42 50 60 70 83 94 99 102 102 101 101 104 107 105 97 92 93 97 98 96 94 92 89 87 87 86 85 82 78 78 76 74 73 72 70 68 68 68 70 71 73 82 92 97
62 66 65 60 55 51 48 44 43 42 39 37 37 35 31 28 26 24 29 41 46 45 41 35 32 29 31 36 38 35 30 27 27 26 25 25 24 25 26 27 31 33 35 37 39 44 52 61 73 86 95 99 100 98 99 101 103 101 95 92 94 95 95 95 94 92 90 90 90 89 89 86 82 77 73 71 70 69 69 71 73 79 86 86 87 97 104 105
64 67 66 63 58 55 50 46 45 45 42 39 38 38 36 34 30 25 30 41 48 49 44 41 39 32 31 37 38 36 33 31 29 27 26 25 25 25 24 24 27 31 35 37 37 39 45 52 61 72 83 89 92 91 91 93 96 98 95 92 94 95 96 96 95 94 93 90 88 85 83 81 77 74 71 70 72 76 80 81 79 84 95 101 104 109 108 104
63 67 67 64 61 59 52 46 49 49 44 41 39 37 38 38 35 32 32 35 40 47 49 52 50 41 37 38 37 36 35 34 32 30 29 28 27 25 25 25 26 28 32 35 36 36 38 44 50 58 67 75 80 82 81 83 89 94 94 90 90 92 93 93 91 90 87 83 81 78 78 78 76 75 73 72 81 91 91 88 85 89 101 107 110 111 105 101
59 64 67 65 63 61 53 49 54 53 45 44 43 39 39 39 40 41 38 32 30 36 45 56 61 58 54 51 44 39 38 39 38 36 35 33 32 31 30 29 27 28 29 33 37 36 35 37 42 49 55 61 67 73 74 76 81 87 88 87 87 87 87 87 85 83 80 79 79 79 79 78 75 76 75 73 83 92 90 89 92 98 108 107 106 106 103 103
56 60 65 65 62 60 54 54 59 57 50 47 46 43 40 39 43 48 44 35 28 27 32 47 64 69 68 68 60 45 41 43 42 41 39 38 39 39 36 33 32 33 33 37 42 40 36 35 38 44 49 52 57 63 67 70 74 78 80 83 85 83 82 83 84 84 84 82 79 79 76 72 75 86 92 90 92 91 87 89 94 99 107 107 104 102 100 101
54 58 62 63 60 56 55 60 66 64 56 50 48 46 43 44 47 47 44 38 31 28 26 33 52 68 75 79 73 59 53 51 48 45 43 42 45 45 42 39 39 41 38 40 46 45 40 38 39 42 46 50 54 57 60 61 64 70 75 82 89 89 87 89 91 90 87 82 78 77 74 73 84 99 105 103 102 97 89 87 91 93 99 103 104 100 96 91
54 57 60 60 59 56 57 64 72 70 61 54 50 47 50 56 53 44 40 39 36 33 30 29 37 53 70 81 80 74 73 70 65 62 55 51 53 51 46 42 40 41 39 40 46 49 47 46 44 44 46 52 59 61 60 60 64 70 76 87 98 101 97 93 90 86 84 83 82 80 79 84 98 107 108 104 103 102 94 86 85 86 87 93 96 95 91 86
55 57 59 59 61 60 59 65 72 71 65 58 51 51 60 63 55 45 39 37 38 39 36 32 30 36 50 67 76 77 80 84 85 87 81 73 71 66 60 56 51 50 51 53 59 64 66 61 56 56 57 62 72 75 69 66 70 74 84 95 101 102 98 92 87 83 82 84 84 84 88 96 105 110 109 106 103 105 101 90 83 81 81 85 90 92 89 90
58 57 58 60 62 61 60 64 69 72 69 59 54 61 69 64 54 50 44 37 38 40 39 36 32 31 36 48 63 71 76 85 90 96 96 90 87 85 84 84 80 75 75 76 80 85 89 84 74 75 82 83 90 95 88 84 85 88 99 107 105 100 97 96 93 86 83 85 85 87 92 96 103 108 108 105 102 102 104 98 86 78 73 72 79 89 93 98
56 57 59 60 61 59 59 63 68 73 71 60 58 68 77 74 61 51 44 38 37 37 40 41 36 34 32 36 48 55 63 76 84 91 99 100 98 98 98 101 98 94 92 93 95 96 100 101 92 90 98 100 103 104 101 101 100 101 105 106 104 102 100 99 99 94 91 89 85 84 86 90 97 103 105 106 106 103 102 103 95 83 73 66 68 83 97 104
54 56 60 61 61 57 57 61 65 70 69 64 67 74 80 83 68 48 39 39 39 38 40 43 42 40 35 33 39 41 46 63 76 84 94 103 107 107 105 106 106 104 101 101 103 101 103 107 104 101 103 106 106 104 103 103 103 103 103 101 102 102 101 100 100 100 99 95 89 84 82 86 93 96 97 102 107 107 104 105 104 97 89 81 73 79 95 104
54 55 58 61 62 59 56 59 62 67 69 70 75 75 77 81 69 49 40 37 39 44 45 43 43 44 42 37 38 39 39 47 60 73 84 94 104 109 107 108 109 109 108 106 103 102 104 106 107 106 104 104 104 102 102 103 101 101 101 101 101 101 100 102 100 101 101 99 98 94 88 87 89 89 92 98 103 106 107 107 109 108 106 103 94 88 95 100
52 53 54 56 59 59 56 56 58 64 70 73 76 74 73 74 65 52 44 39 41 49 52 48 43 45 48 45 41 41 41 39 43 55 70 85 101 110 107 106 109 108 108 110 107 104 106 106 107 108 104 102 103 100 101 104 104 103 102 102 104 102 101 101 100 100 101 100 101 100 96 94 92 91 95 100 102 103 104 103 104 105 105 105 103 97 96 96
44 46 46 47 50 51 51 52 53 58 64 69 71 70 66 65 63 56 50 46 45 49 54 53 47 44 48 51 50 45 43 43 40 42 51 68 91 109 108 103 106 106 105 108 108 106 108 108 107 106 104 104 104 101 100 102 104 105 104 104 105 103 103 104 104 103 102 102 101 100 101 101 100 98 97 96 97 97 96 95 95 97 98 99 99 95 90 90
39 39 40 40 41 42 43 45 47 51 56 61 64 62 60 61 65 64 57 50 47 49 54 54 51 49 48 52 58 56 48 46 46 44 43 50 68 95 109 107 103 103 103 107 104 100 106 110 107 104 103 102 103 101 99 99 101 104 104 103 102 102 104 105 107 107 105 104 104 105 106 104 103 103 100 96 96 96 95 92 90 90 90 93 96 96 92 88
35 35 36 36 37 38 39 40 43 45 48 53 55 56 57 61 65 65 58 50 48 51 56 55 53 54 55 53 55 62 61 53 49 49 48 46 48 65 89 103 107 103 100 103 101 99 106 111 107 104 104 103 102 102 100 100 102 105 106 106 105 105 103 102 103 105 105 107 107 106 105 104 103 103 101 98 98 99 100 98 96 92 90 92 95 98 101 100
27 29 30 30 31 34 36 38 40 41 42 45 48 49 53 57 59 57 53 50 49 51 57 57 53 55 60 59 54 58 67 66 57 51 50 50 46 46 57 75 95 108 107 102 100 101 106 110 105 103 104 103 103 102 101 102 103 102 104 107 107 105 104 103 104 106 107 108 106 103 101 103 104 103 102 101 99 99 100 102 102 100 97 97 96 96 102 105
21 23 24 25 25 27 30 33 35 37 38 41 43 44 48 51 53 52 51 51 51 51 53 55 56 57 60 64 60 56 61 71 70 59 52 50 49 47 46 48 64 89 104 105 104 102 102 102 102 103 103 102 103 103 102 103 103 101 102 105 106 105 106 106 107 108 109 109 108 106 105 104 104 103 103 103 101 99 98 99 101 101 101 101 100 99 102 104
19 20 21 22 23 23 25 26 28 31 34 38 41 43 45 48 50 52 52 52 51 50 50 51 56 61 62 65 66 60 57 66 77 75 63 53 48 49 50 46 48 62 77 88 98 103 103 102 101 100 100 101 103 103 101 101 102 103 103 104 102 102 104 106 105 101 99 99 100 100 102 105 105 104 103 101 103 104 101 99 100 100 100 101 101 102 103 103
18 17 18 19 20 21 22 23 24 27 30 34 37 41 45 48 51 53 53 53 53 52 52 51 54 62 66 67 70 68 61 59 70 80 77 64 52 49 51 51 51 54 58 67 77 84 90 99 103 102 103 102 101 102 100 96 95 98 100 100 97 93 91 91 90 88 87 89 88 85 89 98 104 106 104 101 104 105 102 101 102 103 104 103 102 103 102 102
18 16 16 18 18 19 20 21 23 24 26 29 32 35 40 44 48 52 53 55 57 55 54 54 54 60 67 72 74 74 70 62 60 68 77 77 66 55 52 53 53 53 56 62 67 64 65 76 84 91 99 101 101 103 104 99 92 89 90 94 96 94 88 81 76 77 81 88 91 90 91 96 103 107 108 106 106 105 105 106 106 105 105 103 102 102 103 103
17 16 16 16 17 18 19 20 21 20 22 25 27 30 34 38 42 47 51 54 57 59 59 58 57 58 65 74 80 80 78 73 65 59 63 74 77 69 60 56 56 57 58 62 65 62 60 61 61 63 71 78 83 89 96 98 91 77 67 66 68 69 69 67 64 61 62 68 73 77 81 86 91 96 99 99 98 98 98 98 97 96 96 96 97 97 97 99
16 15 15 15 16 17 17 17 18 18 20 23 25 26 30 34 38 42 46 50 53 57 59 60 60 61 66 73 81 85 85 82 77 68 59 60 70 77 75 67 62 63 63 62 63 62 60 58 58 60 61 63 65 67 71 75 72 61 49 43 42 42 44 48 49 46 45 47 50 54 59 63 67 70 73 76 77 78 78 77 76 76 76 78 82 84 87 90
15 15 15 15 16 16 17 17 17 18 20 22 22 23 26 30 34 37 40 44 48 52 55 58 58 60 65 68 72 80 86 85 82 77 67 58 58 69 83 86 79 73 72 71 70 70 65 59 58 62 65 63 61 58 57 58 59 58 55 50 46 43 42 44 45 43 40 40 43 47 52 56 59 62 65 68 69 69 67 65 64 64 65 66 68 70 74 77
Wind_Speed
65 66 66 67 68 69 69 70 70 71 72 72 73 74 74 74 75 76 76 76 77 77 77 77 77 77 77 77 77 77 76 76 75 74 74 74 74 73 74 74 74 74 74 74 75 76 76 76 78 80 82 83 85 86 87 87 88 90 93 95 97 98 99 100 101 101 101 101 102 102 101 100 100 100 100 100 100 99 99 98 98 97 96 95 94 93 93 92
63 63 64 65 66 67 68 68 69 69 70 71 71 72 73 73 73 74 75 75 75 76 76 76 77 76 76 77 77 76 76 75 75 74 73 73 73 73 73 73 73 73 73 73 74 74 74 74 75 78 79 80 81 82 83 84 86 88 89 92 94 95 95 96 97 98 98 99 99 100 99 98 98 98 98 98 98 97 97 96 95 94 93 92 91 91 91 90
61 62 62 63 64 65 66 67 68 68 69 69 70 71 72 72 72 73 73 73 73 74 74 75 75 76 76 76 76 76 75 75 74 73 73 73 72 72 72 73 72 72 72 72 73 73 73 73 74 75 76 77 78 78 79 80 82 84 86 89 92 92 91 93 94 95 95 95 95 96 95 95 94 95 95 95 94 94 93 92 91 90 90 90 90 90 89 89
59 60 61 61 62 63 64 65 66 67 67 68 69 69 70 71 72 72 72 72 72 72 73 73 74 74 75 75 75 75 75 74 74 73 73 72 72 72 72 72 72 71 71 71 71 72 72 72 73 74 75 75 75 75 76 76 77 78 81 86 89 88 88 89 90 91 91 91 91 91 90 90 89 90 90 90 90 89 88 88 88 89 89 89 89 89 88 88
58 58 59 59 60 60 61 62 64 65 65 66 67 68 69 70 71 72 72 72 71 71 72 72 72 73 73 74 74 74 74 74 74 73 73 72 72 72 72 72 72 71 71 71 71 71 71 71 72 73 74 73 73 73 74 73 73 74 78 83 83 82 84 85 85 86 86 85 86 86 86 85 85 85 86 85 86 86 86 86 87 87 87 87 87 87 86 86
56 56 56 57 57 58 59 60 61 62 63 64 65 66 67 69 70 71 71 71 71 71 71 71 71 71 72 73 73 73 73 73 73 73 73 73 73 73 73 72 72 71 71 71 71 70 70 71 72 72 72 72 71 72 72 71 70 71 76 79 79 78 79 79 79 80 79 79 80 81 81 81 81 82 82 83 83 83 83 84 84 84 84 85 85 84 84 83
53 54 54 54 55 55 56 57 59 60 61 63 64 65 66 67 68 69 70 71 71 71 71 71 71 71 71 72 72 72 72 72 72 72 73 73 73 73 72 72 72 71 71 71 71 71 71 71 71 71 71 70 70 71 71 69 68 70 73 76 75 74 75 75 75 75 76 76 77 77 78 79 80 79 79 79 79 79 79 80 79 79 80 81 81 81 81 80
51 51 51 52 52 53 54 55 56 58 59 60 62 63 64 65 66 67 68 69 70 71 71 71 71 71 71 71 71 72 71 71 71 72 72 72 73 72 72 72 72 71 71 71 71 71 71 71 71 71 70 69 69 70 69 67 67 69 72 74 72 72 74 74 74 74 75 74 74 74 75 76 77 75 74 74 74 74 75 75 74 75 77 77 77 77 76 75
49 49 49 50 50 51 51 53 54 55 56 58 60 61 62 63 64 65 66 67 68 69 71 71 71 71 71 71 71 71 70 70 70 71 72 72 72 72 71 71 71 71 71 70 71 71 71 71 70 70 69 68 69 69 68 66 67 70 72 72 71 72 74 74 73 73 73 72 71 71 72 73 73 71 70 69 69 70 71 71 70 71 73 73 73 72 70 70
47 47 47 47 48 48 49 50 52 53 54 55 57 59 60 61 62 63 64 65 66 67 69 70 70 71 71 71 71 71 70 70 70 71 71 71 71 71 71 71 71 71 70 70 70 70 70 69 68 68 68 68 69 69 68 67 68 70 71 70 70 72 73 73 72 71 71 70 69 69 70 70 69 68 67 66 65 66 67 67 67 69 70 69 68 67 66 67
45 45 45 45 46 46 47 49 50 51 52 53 54 56 58 59 60 61 62 63 64 65 66 67 69 69 70 71 70 70 70 69 70 71 70 70 70 70 70 70 70 70 70 70 69 68 68 67 67 68 68 68 69 69 68 68 69 70 70 69 70 72 73 72 72 71 69 68 68 67 67 66 66 65 64 63 62 63 64 64 66 68 68 67 65 64 65 65
44 43 43 43 44 45 46 47 48 49 50 51 52 54 55 57 58 59 60 61 62 63 64 65 66 67 68 68 68 69 69 68 70 70 70 70 70 69 69 69 69 69 69 68 68 67 67 67 67 68 68 68 69 69 68 68 68 69 69 69 70 71 72 72 72 70 68 66 66 65 64 64 65 64 62 62 61 62 64 65 66 68 68 66 65 65 65 66
42 41 41 42 42 43 44 45 46 47 48 49 50 52 53 55 56 57 58 59 60 61 62 63 64 64 64 65 66 67 66 67 69 69 69 69 68 68 68 68 68 68 67 67 66 66 66 66 66 66 66 67 68 67 66 66 67 68 68 68 70 71 71 72 71 68 66 65 65 63 62 65 67 64 63 63 62 64 66 67 67 69 68 66 66 66 66 66
41 40 40 40 41 41 42 43 44 45 46 47 48 50 51 53 54 55 56 57 59 59 60 61 62 62 62 63 64 64 63 65 66 67 67 67 67 67 67 67 67 66 65 65 65 64 64 64 65 65 65 66 66 65 65 65 66 67 67 68 69 70 71 72 69 67 66 66 65 63 63 66 69 65 64 63 62 65 68 67 68 69 67 66 66 66 66 66
40 39 38 38 39 40 40 42 42 43 44 45 47 48 49 51 52 54 55 56 57 58 59 59 60 60 60 61 62 61 60 62 63 64 64 65 65 65 65 65 64 64 63 63 63 62 62 63 64 64 64 64 64 63 63 63 64 65 66 67 68 69 70 70 68 67 68 66 64 63 62 67 69 66 63 62 62 65 66 66 67 68 67 66 65 64 64 64
39 38 37 37 37 38 39 40 41 42 42 43 44 46 47 49 50 51 53 54 55 57 57 58 58 58 58 59 60 59 58 60 61 61 62 62 62 62 62 62 62 62 61 61 61 61 61 62 63 62 63 62 61 61 61 61 63 64 64 65 66 67 68 67 67 67 67 64 63 62 62 66 68 64 62 61 62 64 64 65 66 66 65 63 62 62 61 60
39 38 36 36 36 37 38 39 40 40 40 41 42 44 45 47 48 49 51 53 54 56 56 56 56 56 57 58 58 57 57 58 59 60 60 60 60 60 60 59 59 59 59 59 59 59 60 61 61 61 61 61 61 60 60 61 62 63 62 62 63 65 66 66 66 66 64 63 62 61 61 63 65 63 61 60 61 63 63 62 63 62 61 59 58 58 57 57
38 37 36 35 35 35 36 37 38 39 39 39 40 41 43 45 46 48 50 52 53 54 54 55 55 55 55 56 57 56 56 57 57 58 58 57 57 57 57 57 57 57 57 57 57 58 58 59 60 60 60 60 60 60 60 61 61 60 60 61 62 64 64 64 64 63 62 62 61 60 60 61 62 61 60 59 60 61 60 59 59 58 57 56 55 54 54 54
37 36 35 34 34 34 35 36 37 38 38 38 38 39 41 43 45 47 49 50 52 53 53 54 54 54 55 56 56 56 55 55 56 56 55 55 55 55 55 55 55 55 55 55 55 56 56 57 58 59 59 59 59 59 59 58 58 58 59 60 61 62 62 62 62 61 61 61 60 59 58 58 58 58 58 57 58 57 56 55 55 54 53 52 51 50 51 51
37 35 34 33 33 33 34 35 36 37 37 37 37 37 39 42 44 46 48 49 50 52 52 53 54 54 55 55 56 56 55 54 54 54 54 54 53 53 53 53 53 53 53 53 53 54 55 55 56 57 57 57 57 57 56 56 56 57 59 59 60 60 60 60 60 60 60 59 58 57 55 55 55 55 54 54 53 53 52 51 50 50 50 49 48 48 49 49
36 35 33 32 32 32 33 34 35 36 36 36 36 37 39 41 42 44 46 47 49 50 51 52 53 53 55 55 56 56 55 55 54 53 53 53 52 52 52 52 52 52 52 52 52 53 53 54 54 54 54 54 54 54 54 54 55 56 57 58 58 58 58 58 58 57 57 56 55 53 52 51 51 51 51 51 50 50 49 49 48 48 48 47 47 48 49 49
36 35 33 32 31 31 32 32 33 35 35 35 36 37 38 38 40 42 43 45 47 49 50 51 52 53 54 55 55 55 55 54 53 53 52 52 52 51 51 51 50 50 51 51 52 52 51 51 51 51 51 52 52 52 52 53 54 54 55 56 56 55 55 55 54 53 53 52 51 50 49 49 49 49 49 49 48 48 48 47 46 46 46 46 46 47 48 47
35 35 33 32 31 30 31 32 32 33 34 35 36 36 36 37 38 39 42 44 46 48 49 50 51 51 52 53 54 54 53 52 52 52 52 52 51 51 51 50 49 50 51 51 50 50 49 48 48 49 49 50 50 50 50 51 52 53 53 53 53 52 52 52 51 50 50 49 48 47 46 47 47 47 47 47 48 48 47 46 45 45 45 45 45 46 46 45
36 34 33 32 31 30 31 31 32 32 33 34 36 36 35 36 37 38 41 43 45 47 49 49 50 51 52 52 53 53 52 52 52 53 52 51 51 51 51 49 49 51 51 49 49 47 46 46 46 47 47 47 47 47 47 48 49 50 50 50 49 49 49 49 49 48 47 46 45 44 44 45 45 45 46 47 48 48 46 44 44 45 44 44 44 44 44 44
36 35 34 33 31 31 30 31 31 32 32 34 34 34 35 35 36 38 40 42 44 46 48 49 49 50 50 50 52 53 52 52 53 53 52 51 51 51 50 49 50 51 50 49 47 46 45 45 45 45 45 44 44 44 45 46 47 47 48 47 46 45 46 46 46 45 44 43 42 42 42 43 44 46 47 47 47 47 45 43 44 44 44 43 43 42 43 44
36 35 34 33 32 31 31 31 31 31 32 33 33 33 34 34 36 37 38 41 43 45 47 48 48 48 48 50 54 53 52 52 52 52 52 51 51 51 50 50 52 51 50 49 47 46 46 45 45 44 44 43 43 44 44 45 46 46 46 44 43 43 43 44 44 43 42 42 41 41 42 43 44 46 47 47 46 46 45 43 43 44 43 43 42 42 43 44
37 36 35 34 33 32 32 31 31 31 32 32 31 32 33 35 36 37 38 41 43 44 46 47 47 47 48 51 54 53 52 52 52 52 53 52 52 51 51 52 52 51 50 48 46 46 46 45 45 44 43 44 44 44 44 45 46 47 46 43 41 42 43 43 43 43 42 41 41 42 42 42 44 46 47 46 45 45 44 43 43 44 43 43 42 42 43 44
38 37 36 35 34 33 33 32 31 32 32 31 31 31 31 34 37 37 37 40 42 43 44 46 47 47 48 50 52 53 53 52 51 53 53 52 51 51 52 53 52 51 49 48 48 48 47 46 45 44 44 45 45 45 45 45 47 47 45 42 41 42 43 43 43 43 42 42 43 43 43 43 44 46 46 45 45 44 44 43 43 43 43 43 42 41 42 43
38 38 38 36 35 34 34 32 31 32 32 31 30 30 31 33 36 37 38 40 42 43 43 44 46 46 47 49 51 53 53 52 52 52 52 52 52 53 53 53 52 50 48 49 50 49 48 47 47 46 47 47 47 46 46 47 48 47 45 42 41 42 43 43 44 44 43 43 44 43 43 44 45 46 45 44 44 44 43 42 42 42 43 43 42 42 42 43
39 39 39 38 36 36 35 33 32 33 33 31 30 30 30 32 35 36 39 42 43 42 42 43 44 45 46 48 51 52 52 52 52 52 51 52 53 53 53 52 51 50 49 51 52 51 50 49 48 48 49 49 48 48 47 47 48 47 45 43 41 42 44 44 44 44 44 44 44 44 43 44 45 45 44 43 42 42 41 42 42 42 43 43 43 43 43 43
40 40 41 40 38 38 37 33 33 35 34 32 32 31 30 32 33 35 40 45 43 42 42 42 43 44 45 47 50 50 51 51 51 51 51 51 52 53 53 52 52 51 50 52 53 53 51 50 50 50 50 50 50 49 48 48 48 47 46 45 43 44 45 45 45 44 44 44 44 43 43 42 43 43 42 42 41 41 41 42 42 43 43 43 43 44 44 43
41 40 41 41 39 39 38 34 34 37 35 33 32 31 31 31 32 35 41 44 43 42 42 42 43 43 44 45 48 49 49 50 50 51 50 51 51 51 52 53 52 51 50 51 54 54 52 50 50 51 52 52 51 50 49 49 49 48 47 46 45 45 45 45 45 44 44 44 43 43 42 41 42 42 42 42 42 42 42 42 42 42 43 43 43 44 43 42
41 41 42 42 41 40 38 34 35 38 37 35 34 33 32 31 33 39 42 42 41 41 41 41 42 43 44 45 47 48 48 49 49 50 50 50 50 51 52 52 50 50 50 51 53 54 52 51 50 51 52 52 51 51 50 50 49 49 47 47 47 46 45 45 45 44 44 44 43 43 42 41 40 40 42 43 43 43 42 42 42 42 43 43 43 43 42 41
42 41 42 43 43 41 38 35 37 39 39 37 35 34 32 32 37 42 42 40 38 38 39 42 43 44 45 46 47 46 46 48 48 49 49 48 48 50 51 50 50 50 51 50 52 53 52 51 51 51 52 51 51 51 51 50 49 48 47 46 47 46 45 45 45 44 44 44 43 43 42 40 39 39 40 42 44 44 43 43 42 42 43 44 43 43 41 39
42 41 42 44 44 42 39 37 38 41 41 39 37 35 34 36 41 42 40 38 36 36 38 41 44 45 46 46 47 45 45 46 46 47 47 47 47 49 49 50 50 50 50 49 50 51 51 51 51 51 51 50 50 50 50 49 48 47 47 46 46 46 46 46 45 45 44 44 43 43 41 40 39 40 40 42 44 45 44 43 42 42 43 43 43 41 39 36
43 41 42 43 44 44 41 39 40 42 43 41 37 36 38 41 42 42 39 36 35 36 38 40 42 45 46 47 47 46 45 45 45 45 46 45 46 47 47 47 47 47 47 47 47 48 48 49 49 49 49 49 48 49 49 48 47 47 46 46 47 47 47 46 46 45 45 44 43 42 40 39 39 40 40 42 44 45 44 43 42 42 42 41 41 40 37 33
44 42 43 44 46 46 43 41 41 43 44 42 37 37 42 44 43 42 40 36 35 36 38 39 39 42 45 47 47 47 46 46 45 45 45 45 45 45 45 45 45 44 44 44 45 45 46 47 47 46 47 46 46 47 47 46 46 44 44 46 47 47 46 46 46 46 45 45 44 42 40 39 39 39 40 42 44 46 46 45 44 43 42 40 39 37 36 32
45 44 44 45 47 47 45 43 43 44 46 43 39 40 44 46 46 44 40 37 35 35 37 39 39 39 42 45 48 48 47 46 46 45 44 44 44 44 44 44 44 43 44 44 44 45 45 46 46 45 45 45 45 45 45 44 43 43 44 45 46 46 45 45 46 45 45 45 44 43 41 40 40 41 41 43 46 47 48 47 45 44 42 40 39 37 36 34
47 45 46 47 49 49 47 45 45 46 46 43 42 44 45 48 49 46 41 37 34 33 35 38 39 39 39 41 45 48 48 48 48 46 45 44 43 43 44 44 43 43 44 44 44 45 45 45 45 44 44 44 44 44 44 43 42 44 45 45 45 46 46 46 46 46 46 46 45 44 42 41 42 44 44 45 48 49 49 48 46 43 42 41 39 38 37 37
48 47 48 49 51 51 49 48 47 46 46 45 46 47 47 50 51 48 43 38 34 34 36 37 37 38 39 39 40 44 48 49 48 48 47 45 44 44 45 45 44 43 44 44 44 44 44 44 45 44 44 45 46 45 44 44 44 45 46 46 46 47 47 47 47 47 47 47 47 46 44 43 45 45 45 47 48 49 48 47 45 43 42 41 41 40 40 41
50 49 50 51 52 53 52 50 48 48 48 48 50 50 50 51 52 49 44 39 36 36 37 37 36 37 39 39 39 41 44 46 48 49 48 47 47 46 46 47 47 46 45 45 44 44 45 45 46 47 46 47 48 46 45 45 46 46 47 47 47 47 48 49 48 48 49 50 49 48 47 47 46 46 47 48 49 48 48 47 46 44 44 43 43 43 43 44
51 51 52 53 53 54 53 52 50 49 50 51 52 53 52 51 51 49 46 43 40 39 39 39 37 36 37 38 39 39 40 42 46 48 50 49 49 49 49 49 49 48 47 47 46 45 46 47 49 50 49 49 49 48 46 47 47 48 48 48 48 48 49 49 50 50 51 51 51 49 49 49 48 48 48 49 49 49 49 48 48 46 45 45 45 46 46 46
53 52 54 55 55 55 54 53 52 51 52 53 55 55 53 51 51 52 50 46 43 42 42 41 39 37 36 37 39 40 40 40 42 45 49 51 51 51 51 51 51 50 49 49 48 46 46 48 50 52 51 51 51 49 48 49 49 50 50 50 49 50 50 50 51 52 51 51 51 51 51 51 50 49 49 49 50 51 51 50 50 49 47 46 46 47 48 48
53 54 56 57 56 55 56 55 54 54 55 56 57 56 54 53 54 56 53 48 44 43 44 43 41 38 37 38 39 40 40 41 41 42 46 49 51 52 52 53 53 52 51 51 50 48 48 51 51 52 53 52 52 51 50 51 52 53 53 52 52 52 52 52 53 53 52 51 52 52 53 53 52 51 50 50 51 51 52 52 51 51 49 48 48 49 49 50
49 50 54 56 55 56 57 58 58 58 58 58 59 57 56 55 56 57 55 49 46 46 47 45 43 41 40 39 39 40 41 42 42 43 44 46 48 50 53 54 53 54 53 53 51 50 51 53 53 53 54 53 53 53 53 54 55 56 56 55 54 54 54 53 53 54 53 53 53 53 54 54 54 53 53 52 52 52 53 53 53 53 51 51 51 51 52 52
43 44 48 50 52 54 56 58 59 59 59 59 60 59 57 57 57 58 56 52 50 49 49 47 46 44 43 42 41 41 42 43 44 45 45 45 45 47 51 53 53 54 55 55 53 53 53 54 54 54 55 55 55 56 56 55 56 56 57 56 55 55 54 54 54 54 54 54 54 53 54 54 54 54 54 54 54 55 55 55 55 55 54 54 54 54 55 55
39 39 42 44 46 49 52 53 56 58 59 60 61 60 59 58 59 59 58 56 53 52 51 49 48 47 46 45 44 43 43 44 46 46 46 46 45 45 47 50 52 54 56 56 56 55 55 55 55 56 56 56 57 58 58 57 57 57 57 57 56 56 56 56 56 56 56 56 55 55 54 55 55 55 56 56 56 57 57 57 57 57 57 56 57 57 58 58
36 36 37 39 41 44 47 48 50 54 57 59 61 61 61 61 61 61 61 59 56 55 54 52 50 49 49 48 47 46 45 46 47 48 48 48 47 46 46 48 50 53 55 56 57 57 57 58 58 57 58 58 58 59 60 60 60 60 60 60 59 59 59 60 59 59 58 58 58 58 57 57 58 58 58 59 59 60 60 60 60 60 60 60 61 61 61 61
34 33 34 35 37 40 42 44 46 50 53 56 59 60 61 62 63 63 63 61 59 58 56 55 52 51 51 50 49 49 48 48 48 49 49 50 49 48 48 48 49 51 52 54 56 58 58 59 60 60 60 61 61 60 61 62 63 63 63 63 63 63 64 64 63 62 61 61 62 61 61 61 61 62 62 63 63 64 65 65 65 65 65 65 65 65 65 65
30 30 31 32 34 36 39 42 44 46 48 51 54 56 58 60 62 64 64 64 62 60 59 58 56 54 53 52 52 51 51 50 50 50 51 51 51 51 50 49 49 50 51 53 54 56 57 58 59 60 60 62 62 62 62 62 64 65 65 65 65 65 65 66 66 65 64 64 64 64 64 64 65 65 66 67 67 68 68 69 69 69 69 69 69 69 69 69
27 27 28 29 31 34 37 40 41 42 43 46 49 51 54 57 60 62 64 64 64 63 62 61 59 57 56 56 55 54 53 53 53 53 52 52 52 52 52 51 51 51 52 53 53 54 55 56 56 56 58 59 61 61 62 62 63 63 63 61 60 60 60 60 62 63 62 61 62 63 64 65 66 66 67 67 68 69 69 70 70 71 71 71 71 71 71 71
24 23 24 25 27 30 33 35 37 38 40 43 45 46 49 53 56 59 61 62 63 63 63 63 62 60 60 59 58 57 57 56 55 56 55 54 53 52 53 53 53 53 53 53 54 54 55 55 55 55 56 58 59 59 59 59 58 58 57 55 54 54 53 53 55 55 55 55 55 57 59 60 61 62 63 64 65 66 67 68 69 70 70 71 72 72 72 72
Wind_Direction
270 269 268 267 266 264 263 261 259 258 256 255 254 254 254 253 253 253 253 252 252 252 252 252 252 252 251 251 251 251 251 251 251 251 251 251 252 253 253 253 253 252 252 252 252 252 252 252 252 251 251 251 252 252 253 253 253 253 253 253 254 254 255 256 257 258 259 260 261 262 263 263 264 265 266 266 267 267 267 268 268 269 269 270 271 272 272 273
270 269 268 267 266 265 263 262 260 258 256 255 254 253 252 252 252 252 252 252 251 251 252 252 251 251 251 251 251 251 251 251 251 251 251 252 252 253 253 254 254 254 253 252 252 252 252 252 252 252 252 252 252 252 252 253 254 254 255 255 255 256 256 257 257 258 258 259 260 261 262 262 263 264 265 265 265 265 266 267 268 269 270 271 271 271 272 273
271 271 270 268 267 265 263 262 260 259 257 255 254 252 251 251 251 251 251 251 251 251 251 251 251 251 251 251 251 251 251 251 251 252 252 252 252 253 253 254 254 254 254 253 253 253 253 253 253 253 253 253 253 253 253 253 253 254 255 256 256 257 257 258 258 259 259 259 260 260 261 262 262 263 263 264 264 265 266 268 269 270 271 271 271 271 272 273
273 272 271 269 267 265 263 262 260 259 257 256 254 252 251 250 250 250 250 250 250 250 250 250 250 250 251 251 250 250 251 251 251 251 252 252 253 253 253 254 254 254 255 254 254 254 254 254 254 254 253 254 254 254 254 254 254 255 256 256 257 257 258 258 259 259 260 260 261 261 262 262 262 262 263 263 264 266 267 269 270 270 271 271 272 272 273 274
274 273 272 269 267 264 262 261 260 259 258 256 254 253 251 250 249 249 249 249 249 249 249 249 250 250 250 250 250 250 250 250 251 251 252 252 252 253 253 253 254 254 255 255 255 255 255 255 255 255 255 255 255 255 255 255 256 256 257 257 257 258 258 258 259 260 261 261 261 262 262 262 262 262 263 264 266 267 269 269 270 271 272 272 273 273 273 274
275 274 272 269 266 264 262 261 260 259 258 256 255 253 252 251 250 249 248 248 248 248 248 249 249 249 249 250 250 250 250 250 250 251 251 252 252 253 253 254 254 254 255 255 256 256 256 256 256 256 256 256 256 257 256 256 257 257 258 258 259 259 260 260 260 261 261 261 261 261 262 262 262 263 264 266 267 268 269 270 271 272 273 273 273 274 274 275
277 275 272 269 266 264 262 261 260 259 258 256 255 253 252 251 250 249 249 248 248 248 248 248 248 249 249 249 249 250 250 250 250 250 251 251 252 252 253 254 254 255 255 256 256 256 256 256 256 257 258 258 258 258 258 258 258 258 258 259 260 260 261 260 260 260 260 261 261 262 263 264 264 265 266 268 269 269 270 271 272 273 273 273 274 274 275 276
278 276 272 269 266 264 263 262 260 259 258 256 255 254 252 251 250 249 249 248 248 248 247 247 248 248 248 248 249 249 249 250 250 250 250 251 251 252 253 254 254 255 255 255 256 256 256 256 257 258 259 259 259 259 260 260 259 259 259 260 260 261 261 260 260 261 261 262 263 264 265 266 267 268 269 270 270 271 272 273 273 273 273 273 274 275 276 277
279 276 273 269 266 265 264 262 261 259 258 256 255 254 253 251 250 250 249 249 248 248 248 247 247 247 248 248 248 249 249 249 250 250 251 251 251 252 252 253 254 254 255 255 256 256 257 257 258 259 259 259 259 259 259 259 258 258 259 260 261 261 262 262 262 263 263 264 265 266 267 268 269 270 271 271 272 273 273 274 274 273 273 274 274 276 277 278
281 277 273 270 267 266 264 262 261 259 258 256 255 254 253 252 250 250 249 249 248 248 248 248 247 247 247 248 248 248 249 249 249 250 250 251 251 252 252 252 253 254 254 255 255 256 257 258 259 258 258 258 258 258 257 257 257 258 259 260 261 262 262 263 263 263 264 265 266 267 268 269 271 271 272 272 273 273 273 274 274 273 273 274 275 277 278 277
282 279 274 271 268 267 265 263 261 259 257 256 255 254 252 251 250 249 249 248 248 248 248 248 248 247 247 248 248 248 248 248 249 249 250 251 251 251 252 252 252 253 253 254 255 256 257 257 257 257 257 257 257 257 257 257 257 258 259 260 260 261 262 263 263 263 264 266 267 268 269 271 271 271 271 272 272 272 272 273 273 272 273 274 275 276 276 276
284 281 276 272 270 268 265 263 261 259 257 256 255 253 252 251 250 249 248 248 248 247 247 247 247 247 247 248 248 248 248 248 248 248 249 250 250 251 251 252 252 253 253 254 254 255 255 256 256 256 257 257 257 257 257 258 258 258 259 259 260 260 261 262 263 264 265 266 267 268 269 270 269 269 270 270 271 271 271 271 271 271 272 274 275 275 276 276
286 282 278 274 271 269 266 264 261 259 257 256 254 253 251 250 249 248 248 247 247 247 247 247 247 247 247 247 247 247 247 247 247 248 248 249 249 250 251 251 252 252 253 254 254 254 255 255 256 256 256 256 256 257 257 257 257 258 258 259 259 260 261 262 263 265 265 266 266 267 267 267 267 267 268 268 269 270 269 269 270 271 272 274 275 275 276 276
287 284 279 275 272 270 267 264 261 259 258 256 254 253 251 249 248 247 246 246 246 246 246 246 246 246 246 247 247 247 247 247 247 247 247 248 248 249 250 250 251 252 252 253 253 254 254 254 254 254 255 255 256 257 257 257 257 257 258 258 259 259 260 262 263 264 264 263 264 265 266 266 266 266 267 268 268 268 269 270 270 271 272 273 274 275 275 275
288 286 281 277 274 271 268 265 262 260 258 256 255 253 251 249 247 246 245 245 244 244 244 244 245 245 245 246 246 246 245 246 246 246 247 247 247 248 249 250 250 251 251 252 252 253 253 253 253 254 255 256 256 257 257 257 257 257 257 257 258 259 260 262 263 263 263 263 263 264 264 264 265 266 267 268 267 267 268 269 270 271 272 273 274 274 274 274
289 287 283 278 276 273 269 265 262 260 259 257 255 253 251 249 247 246 244 244 243 243 243 243 243 243 244 244 245 245 244 245 246 245 246 246 246 247 248 248 249 250 250 251 251 251 251 252 253 254 255 256 256 257 257 257 257 257 257 257 259 260 261 262 262 262 263 264 264 263 263 264 266 267 267 267 266 266 267 268 269 271 272 273 273 273 273 273
290 288 284 280 277 274 270 266 263 261 260 258 256 253 251 249 247 245 244 242 242 241 241 242 242 242 242 243 244 243 243 243 244 244 244 245 246 246 247 247 248 249 249 250 250 250 251 252 253 253 254 255 256 256 256 256 256 257 258 259 260 260 261 261 262 263 264 264 264 263 263 263 265 266 266 265 265 265 266 267 268 269 271 271 271 271 271 271
290 290 286 281 278 275 271 267 264 262 260 259 256 254 251 249 247 245 243 241 241 240 240 240 241 241 241 242 242 242 241 242 243 244 245 245 245 246 247 247 247 248 249 249 249 250 251 251 252 253 254 254 255 255 256 256 258 259 260 260 259 260 261 262 262 263 264 263 263 262 262 263 264 265 265 265 264 264 265 266 267 268 268 269 269 270 270 271
291 290 288 283 279 276 272 268 264 262 261 259 257 254 251 248 246 244 242 241 240 240 239 239 239 238 239 239 240 241 241 241 243 244 245 245 245 246 246 247 247 248 248 249 249 250 251 251 252 253 254 255 256 257 257 259 260 260 259 259 259 259 260 261 261 262 262 262 262 262 263 263 264 264 264 264 264 264 265 265 265 266 266 267 268 269 269 271
290 291 289 285 281 277 273 269 265 263 261 260 258 255 251 248 246 244 243 242 241 240 239 239 238 238 238 238 239 240 240 240 241 243 244 244 245 245 246 247 247 248 249 249 249 250 250 251 252 254 255 257 258 258 259 260 259 259 259 258 258 259 259 260 260 261 261 262 262 263 263 263 263 263 263 263 263 263 263 263 263 263 264 265 266 267 268 269
290 290 289 287 282 278 274 270 267 264 262 260 258 255 252 249 247 245 244 243 241 241 240 239 239 238 238 238 239 239 239 239 240 241 243 244 244 245 246 246 247 248 248 249 249 249 250 251 253 255 257 258 258 259 259 259 259 258 258 258 259 259 259 260 260 260 261 262 262 263 262 262 261 261 261 261 261 261 260 260 261 262 263 264 265 266 267 268
288 289 289 287 284 280 276 272 268 265 262 260 259 257 254 251 248 246 245 243 242 241 240 239 239 238 238 239 239 240 240 240 240 241 242 243 244 244 245 245 246 247 248 248 249 250 251 253 254 256 256 257 258 259 259 259 258 258 258 258 259 259 260 260 260 260 260 261 261 261 260 260 259 259 259 259 259 259 259 259 260 261 262 263 264 265 267 268
286 288 288 287 285 281 277 273 269 266 263 260 258 257 256 253 249 247 244 242 241 241 240 239 239 238 238 239 240 240 241 241 241 241 241 242 243 244 244 245 246 246 247 248 249 250 252 253 254 255 256 257 258 258 258 257 257 257 257 258 258 258 259 259 259 258 258 259 259 259 259 259 258 257 257 257 257 257 257 258 260 260 261 262 263 265 266 267
284 285 286 286 285 282 278 274 271 267 264 261 259 257 256 255 251 248 245 243 241 241 240 238 238 238 238 239 240 241 241 241 241 241 241 241 242 243 244 245 246 246 247 248 249 250 251 253 254 255 256 257 258 257 257 257 257 257 257 257 258 258 258 258 258 258 257 257 257 257 257 257 257 256 255 255 255 256 257 259 260 261 262 263 263 263 264 266
283 283 284 284 284 282 279 275 272 269 265 263 261 259 257 256 254 250 247 245 243 242 241 239 238 238 238 239 240 240 240 240 241 242 241 241 241 243 244 244 245 245 246 247 248 250 251 252 253 255 256 256 256 256 256 256 256 256 257 257 257 257 257 258 258 258 257 256 255 255 254 254 255 255 254 255 256 257 259 259 260 261 262 261 261 260 261 263
281 281 281 282 282 281 279 276 273 270 267 264 263 260 257 255 255 252 249 247 244 242 242 241 239 239 238 238 240 240 239 240 240 242 242 241 241 241 242 242 243 244 245 246 248 249 250 251 253 254 255 255 254 254 254 255 255 255 255 256 256 256 256 256 256 256 255 254 253 252 251 252 253 254 255 256 257 259 260 260 260 261 260 259 259 259 259 261
279 279 279 279 279 279 278 277 275 272 268 266 264 261 257 254 253 253 250 248 245 243 242 241 239 238 237 239 241 241 240 240 240 241 242 242 241 242 242 243 244 245 246 247 249 249 250 252 253 254 255 255 254 254 255 255 256 255 255 255 255 255 254 255 255 254 253 253 252 251 250 250 251 252 254 256 258 260 261 260 259 259 258 257 257 257 259 262
278 277 276 276 277 276 276 275 275 274 271 267 264 262 259 255 253 252 251 250 247 244 242 241 240 238 238 239 241 242 241 241 240 241 242 243 243 243 243 244 245 246 247 248 249 249 250 251 253 254 254 254 254 254 255 255 255 256 256 256 255 254 254 254 254 254 253 252 252 251 251 251 251 252 254 256 257 258 259 259 258 258 258 258 258 258 260 262
277 275 274 274 274 274 274 274 274 273 272 269 265 261 259 257 254 251 250 250 248 246 244 242 241 239 238 239 241 242 242 241 241 242 242 243 243 243 244 244 245 247 248 248 248 249 249 250 251 251 252 253 253 253 254 254 255 256 257 256 255 254 254 253 253 253 253 252 253 253 253 253 253 254 255 256 257 257 257 257 257 258 258 259 259 259 260 263
275 274 272 271 271 272 271 272 272 272 271 270 266 261 258 257 256 253 250 248 248 247 246 244 243 241 238 239 241 242 243 243 242 243 243 243 244 244 245 246 246 247 247 248 249 248 248 249 250 251 251 252 253 253 254 254 256 257 257 256 254 253 253 252 252 253 253 253 254 254 254 254 255 256 256 256 256 255 255 255 256 256 257 259 259 260 262 264
273 272 271 270 269 269 270 271 271 270 269 268 267 264 259 256 256 254 250 247 246 246 246 245 245 243 241 241 242 242 243 244 244 244 244 244 245 245 246 247 246 246 246 248 249 249 249 249 251 251 252 252 253 253 254 254 255 256 256 255 254 252 252 253 253 253 254 254 254 254 254 255 256 256 256 255 253 253 253 253 254 255 256 258 259 262 264 266
272 271 270 269 267 267 269 270 269 268 268 267 266 265 261 257 255 253 250 248 246 245 245 245 246 245 242 242 242 242 242 243 244 244 244 245 246 247 247 247 247 248 248 249 250 251 250 249 251 251 252 253 253 253 254 254 254 255 255 255 255 254 254 254 255 255 255 255 255 255 254 254 255 256 256 255 253 252 252 253 254 255 257 258 260 261 264 265
271 269 268 268 266 266 267 268 266 267 267 266 265 264 262 259 255 251 250 250 248 246 245 245 245 245 244 243 242 242 242 242 243 244 244 244 245 246 247 247 248 249 248 248 250 251 251 250 249 250 251 252 252 252 252 252 253 254 255 255 255 255 255 256 256 255 255 255 255 254 254 254 255 256 257 257 255 253 253 253 254 255 256 258 259 259 260 261
269 268 267 267 266 265 266 266 264 264 265 264 264 263 262 260 256 252 251 251 252 251 248 245 245 245 244 244 244 243 243 243 243 244 244 244 245 246 246 247 247 247 247 247 248 250 251 250 249 249 250 251 251 251 251 252 252 253 254 255 255 255 255 254 254 254 254 254 255 254 254 254 254 253 255 257 257 256 254 253 253 253 254 256 257 257 258 260
268 267 266 266 266 266 264 262 260 261 262 263 262 263 261 258 256 255 254 252 252 252 250 246 244 244 244 245 245 244 243 243 243 244 244 244 245 245 246 246 246 247 247 247 248 250 250 250 249 249 249 250 251 251 251 251 252 252 253 253 253 253 253 253 253 253 254 254 254 254 254 253 252 251 252 255 258 258 257 255 254 253 254 255 257 257 258 259
268 266 265 265 265 264 262 259 258 259 261 261 262 262 260 257 257 258 257 254 251 250 249 248 246 244 244 245 245 244 244 243 243 244 244 244 244 245 246 247 247 247 248 248 248 249 250 250 249 250 250 250 250 251 251 251 251 251 252 252 252 252 253 253 254 254 253 253 253 253 252 251 251 251 252 254 258 260 260 258 257 255 254 254 256 258 257 255
267 266 265 264 263 262 261 259 258 258 259 261 261 259 259 260 260 260 258 256 252 249 249 249 248 246 245 245 246 245 244 244 243 243 244 244 244 245 245 246 246 245 245 245 246 246 248 249 248 248 250 250 250 251 251 251 252 252 253 253 253 254 254 255 255 255 254 254 253 252 251 250 250 250 251 253 256 259 260 259 258 257 255 253 254 255 254 249
266 265 264 263 262 261 260 258 257 257 258 260 260 257 257 259 260 259 258 256 254 251 250 249 248 247 246 245 245 246 245 244 244 243 244 245 245 246 246 245 244 244 243 243 243 244 245 247 247 247 247 248 249 250 250 250 251 252 251 252 254 256 256 256 257 257 256 256 254 253 251 250 250 249 249 251 254 256 258 259 259 259 258 256 253 251 249 243
266 264 263 262 262 260 259 257 256 256 257 259 257 254 254 256 258 259 259 258 256 255 253 250 249 248 247 246 245 246 246 245 245 244 242 243 244 246 246 246 245 245 244 243 243 244 244 246 246 246 246 246 246 247 248 248 248 249 250 250 252 254 255 256 257 258 257 257 257 255 253 251 251 250 250 251 253 256 257 259 259 259 259 258 255 250 246 241
267 265 263 261 261 260 258 257 256 255 256 256 254 253 252 254 257 259 260 259 257 256 254 252 250 248 247 247 246 246 246 246 245 245 243 241 242 243 244 246 246 245 246 245 244 245 245 246 247 246 245 246 245 244 245 246 246 247 249 249 250 252 254 254 255 256 257 258 258 257 256 253 252 252 252 253 254 255 257 258 258 258 257 256 254 251 246 243
268 266 263 261 260 259 258 256 255 254 254 253 253 253 252 253 256 259 260 259 257 254 253 253 251 248 247 246 245 245 246 246 245 245 244 242 241 242 243 245 245 244 245 246 246 246 246 246 247 246 245 245 246 244 244 246 246 247 248 249 250 251 252 253 254 255 257 258 258 258 258 257 255 255 254 254 255 255 255 256 255 254 254 253 253 251 248 246
267 265 263 261 259 258 257 256 254 253 252 252 252 252 252 253 256 258 258 256 254 252 252 251 250 248 247 245 244 245 245 246 245 245 245 244 242 241 242 244 245 244 244 245 245 245 246 246 247 247 246 246 247 247 246 247 247 248 249 250 251 251 253 254 254 255 255 257 258 259 259 259 257 256 255 255 256 255 255 254 254 253 252 252 252 251 250 249
267 264 262 260 258 258 257 255 254 252 251 251 251 251 252 252 254 254 253 252 251 251 251 251 249 248 247 245 243 243 244 244 244 244 244 244 243 241 241 243 245 245 245 245 245 245 246 247 247 248 248 247 248 248 248 249 250 251 251 252 253 253 253 254 255 255 255 256 258 259 259 258 258 257 256 256 256 257 256 256 255 255 254 253 253 253 253 252
267 265 262 260 258 257 256 254 252 250 249 248 249 249 250 249 250 251 251 250 250 250 250 250 248 246 245 244 243 241 241 242 242 242 242 242 242 242 241 242 243 245 245 245 246 246 246 247 247 248 249 249 249 250 249 250 251 251 252 252 253 253 254 254 255 256 256 257 257 259 259 259 259 258 257 257 256 256 257 257 257 256 256 255 255 255 255 255
267 264 262 260 257 255 253 252 250 249 247 247 247 247 247 247 248 250 251 250 249 248 248 248 248 245 243 242 242 241 240 240 240 240 241 241 240 240 241 241 241 243 244 245 246 246 246 247 247 248 250 250 250 249 249 249 250 251 252 252 252 253 254 255 255 256 257 257 257 258 259 260 260 260 259 258 257 256 257 257 258 257 257 257 257 257 257 257
270 265 261 259 257 254 252 250 249 249 248 247 247 246 246 246 248 249 250 249 247 247 246 246 246 246 244 242 241 240 239 239 239 239 240 240 239 239 240 240 240 241 243 243 244 244 246 247 248 248 250 251 251 250 249 249 250 251 252 253 253 253 254 254 254 254 254 255 255 256 257 259 259 260 260 259 259 258 257 258 258 259 258 258 259 259 258 258
273 267 262 259 256 254 252 250 249 248 247 246 246 246 246 246 246 248 248 248 246 246 246 245 245 245 245 244 242 241 240 239 239 239 240 240 239 238 239 240 240 241 242 242 243 243 244 246 247 248 249 251 252 252 251 250 250 251 252 253 253 253 253 253 253 253 253 254 255 255 256 257 258 259 259 259 259 259 259 258 258 259 259 259 259 259 259 259
276 270 264 260 256 254 252 250 248 246 245 245 244 243 243 244 245 246 247 247 246 245 246 245 244 244 244 244 244 243 241 240 239 239 239 240 239 238 238 239 240 240 241 242 243 243 243 244 245 247 248 249 250 252 253 251 250 251 252 253 254 254 254 253 253 254 255 256 257 256 256 257 258 259 259 260 260 260 260 259 259 259 259 259 258 259 259 259
278 273 267 261 257 254 253 250 247 245 244 243 242 241 240 241 242 243 244 245 245 245 245 245 244 243 244 244 244 244 244 242 241 240 239 240 240 239 238 239 239 240 241 241 243 243 243 244 244 245 247 248 249 251 253 254 253 252 252 253 254 255 255 255 255 255 256 256 257 258 258 257 257 258 259 259 260 260 260 260 260 260 259 259 259 258 258 258
279 274 269 263 258 255 252 249 247 245 244 243 242 241 240 240 240 241 242 243 244 244 245 245 244 244 244 244 244 245 245 245 244 242 241 240 240 240 240 240 240 240 241 242 242 243 244 245 245 246 247 248 249 251 252 254 255 255 254 254 254 255 256 258 258 257 257 256 257 257 257 257 256 257 257 258 258 259 260 260 260 260 260 260 260 259 259 258
283 277 271 265 260 255 253 251 250 248 246 244 243 241 239 239 239 240 240 241 242 243 243 244 244 243 243 243 243 244 244 245 245 245 243 242 240 240 240 241 241 241 242 242 243 244 245 246 246 247 248 249 249 250 251 252 254 256 258 258 257 257 257 258 259 259 258 256 255 255 254 254 255 255 256 257 257 258 259 260 260 260 260 260 260 260 259 259
290 282 274 268 262 257 255 254 253 250 247 246 245 242 240 238 238 238 239 240 241 242 242 243 243 243 243 242 242 242 243 243 244 244 244 244 242 241 240 241 241 242 242 243 243 245 246 247 247 248 249 251 251 252 253 254 256 259 261 262 261 261 260 260 260 261 259 257 254 252 251 251 252 253 254 255 256 258 259 260 260 261 261 261 260 260 260 260